This demonstration page uses our WeatherBlox Daily Observations layout. Learn more.

Left ArrowRight Arrow

Hourly Observations for April 24, 2015

Temp ( °F °C ) Dew Point ( °F °C ) Humidity (%) Winds ( mph kmh ) Pressure ( in mb ) Visibility ( mi km ) Precip ( " mm )
12:53 am 00:53 Clear 35 1.7 29 -1.7 78 78 Calm 30.12 1020 10 16.0934 0 0
1:53 am 01:53 Clear 34 1.1 29 -1.7 82 82 Calm 30.13 1020 10 16.0934 0 0
2:53 am 02:53 Clear 32 0 29 -1.7 88 88 Calm 30.12 1020 10 16.0934 0 0
3:53 am 03:53 Clear 30 -1.1 28 -2.2 92 92 Calm 30.13 1020 10 16.0934 0 0
4:53 am 04:53 Clear 31 -0.6 29 -1.7 92 92 Calm 30.12 1020 10 16.0934 0 0
5:53 am 05:53 Clear 30 -1.1 28 -2.2 92 92 Calm 30.13 1020 10 16.0934 0 0
6:53 am 06:53 Sunny 30 -1.1 27 -2.8 88 88 Calm 30.16 1021 10 16.0934 0 0
7:53 am 07:53 Sunny 33 0.6 31 -0.6 92 92 Calm 30.17 1022 10 16.0934 0 0
8:53 am 08:53 Sunny 40 4.4 35 1.7 83 83 Calm 30.17 1022 10 16.0934 0 0
9:53 am 09:53 Sunny 48 8.9 25 -3.9 41 41 VRB 5 7 30.16 1021 10 16.0934 0 0
10:53 am 10:53 Sunny 53 11.7 27 -2.8 37 37 VRB 3 6 30.15 1021 10 16.0934 0 0
11:53 am 11:53 Sunny 55 12.8 24 -4.4 30 30 VRB 5 7 30.15 1021 10 16.0934 0 0
12:53 pm 12:53 Sunny 58 14.4 27 -2.8 31 31 VRB 3 6 30.13 1020 10 16.0934 0 0
1:53 pm 13:53 Sunny 58 14.4 25 -3.9 28 28 VRB 7 11 30.11 1020 10 16.0934 0 0
2:53 pm 14:53 Sunny 59 15 25 -3.9 27 27 W 5 7 30.09 1019 10 16.0934 0 0
3:53 pm 15:53 Sunny 60 15.6 24 -4.4 25 25 E 3 6 30.04 1017 10 16.0934 0 0
4:53 pm 16:53 Sunny 62 16.7 23 -5 22 22 VRB 5 7 30.01 1016 10 16.0934 0 0
5:53 pm 17:53 Sunny 62 16.7 26 -3.3 25 25 VRB 3 6 29.99 1016 10 16.0934 0 0
6:53 pm 18:53 Mostly Cloudy 61 16.1 26 -3.3 26 26 SE 5 7 29.99 1016 10 16.0934 0 0
7:53 pm 19:53 Cloudy 60 15.6 27 -2.8 28 28 Calm 29.97 1015 10 16.0934 0 0
8:53 pm 20:53 Cloudy 58 14.4 30 -1.1 35 35 Calm 29.96 1015 10 16.0934 0 0
9:53 pm 21:53 Cloudy 56 13.3 35 1.7 46 46 ESE 3 6 29.95 1014 10 16.0934 0 0
10:53 pm 22:53 Cloudy 57 13.9 34 1.1 42 42 Calm 29.93 1014 10 16.0934 0 0
11:53 pm 23:53 Cloudy 56 13.3 35 1.7 46 46 Calm 29.92 1013 10 16.0934 0 0

Powered by AerisWeather